QPF
0.00 0.00 0.00 0.00 0.00 0.00 0.00 0.00 0.00 0.00 0.00 0.00 0.00 0.00 0.00 0.01 0.01 0.02 0.02 0.02 0.01 0.01 0.01 0.01 0.01 0.02 0.02 0.02 0.02 0.02 0.03 0.03 0.02 0.03 0.02 0.02 0.02 0.03 0.03 0.04 0.04 0.04 0.06 0.06
0.00 0.00 0.00 0.00 0.00 0.00 0.00 0.00 0.00 0.00 0.00 0.00 0.00 0.00 0.00 0.00 0.00 0.01 0.01 0.01 0.01 0.00 0.00 0.00 0.00 0.00 0.00 0.00 0.00 0.00 0.01 0.01 0.01 0.01 0.01 0.01 0.01 0.01 0.01 0.01 0.02 0.03 0.03 0.03
0.00 0.00 0.00 0.00 0.00 0.00 0.00 0.00 0.00 0.00 0.00 0.00 0.00 0.00 0.00 0.00 0.00 0.00 0.00 0.00 0.00 0.00 0.00 0.00 0.00 0.00 0.00 0.00 0.00 0.00 0.00 0.00 0.00 0.00 0.00 0.00 0.01 0.01 0.01 0.01 0.01 0.01 0.01 0.01
0.00 0.00 0.00 0.00 0.00 0.00 0.00 0.00 0.00 0.00 0.00 0.00 0.00 0.00 0.00 0.00 0.00 0.00 0.00 0.00 0.00 0.00 0.00 0.00 0.00 0.00 0.00 0.00 0.00 0.00 0.00 0.00 0.00 0.00 0.00 0.00 0.00 0.00 0.00 0.00 0.00 0.01 0.01 0.01
0.00 0.00 0.00 0.00 0.00 0.00 0.00 0.00 0.00 0.00 0.00 0.00 0.00 0.00 0.00 0.00 0.00 0.00 0.00 0.00 0.00 0.00 0.00 0.00 0.00 0.00 0.00 0.00 0.00 0.00 0.00 0.00 0.00 0.00 0.00 0.00 0.00 0.00 0.00 0.00 0.00 0.00 0.00 0.00
0.00 0.00 0.00 0.00 0.00 0.00 0.00 0.00 0.00 0.00 0.00 0.00 0.00 0.00 0.00 0.00 0.00 0.00 0.00 0.00 0.00 0.00 0.00 0.00 0.00 0.00 0.00 0.00 0.00 0.00 0.00 0.00 0.00 0.00 0.00 0.00 0.00 0.00 0.00 0.00 0.00 0.00 0.00 0.00
0.00 0.00 0.00 0.00 0.00 0.00 0.00 0.00 0.00 0.00 0.00 0.00 0.00 0.00 0.00 0.00 0.00 0.00 0.00 0.00 0.00 0.00 0.00 0.00 0.00 0.00 0.00 0.00 0.00 0.00 0.00 0.00 0.00 0.00 0.00 0.00 0.00 0.00 0.00 0.00 0.00 0.00 0.00 0.00
0.00 0.00 0.00 0.00 0.00 0.00 0.00 0.00 0.00 0.00 0.00 0.00 0.00 0.00 0.00 0.00 0.00 0.00 0.00 0.00 0.00 0.00 0.00 0.00 0.00 0.00 0.00 0.00 0.00 0.00 0.00 0.00 0.00 0.00 0.00 0.00 0.00 0.00 0.00 0.00 0.00 0.00 0.00 0.00
0.00 0.00 0.00 0.00 0.00 0.00 0.00 0.00 0.00 0.00 0.00 0.00 0.00 0.00 0.00 0.00 0.00 0.00 0.00 0.00 0.00 0.00 0.00 0.00 0.00 0.00 0.00 0.00 0.00 0.00 0.00 0.00 0.00 0.00 0.00 0.00 0.00 0.00 0.00 0.00 0.00 0.00 0.00 0.00
0.00 0.00 0.00 0.00 0.00 0.00 0.00 0.00 0.00 0.00 0.00 0.00 0.00 0.00 0.00 0.00 0.00 0.00 0.00 0.00 0.00 0.00 0.00 0.00 0.00 0.00 0.00 0.00 0.00 0.00 0.00 0.00 0.00 0.00 0.00 0.00 0.00 0.00 0.00 0.00 0.00 0.00 0.01 0.01
0.00 0.00 0.00 0.00 0.00 0.00 0.00 0.00 0.00 0.00 0.00 0.00 0.00 0.00 0.00 0.00 0.00 0.00 0.00 0.00 0.00 0.00 0.00 0.00 0.00 0.00 0.00 0.00 0.00 0.00 0.00 0.00 0.00 0.00 0.00 0.00 0.00 0.00 0.00 0.00 0.00 0.00 0.01 0.01
0.00 0.00 0.00 0.00 0.00 0.00 0.00 0.00 0.00 0.00 0.00 0.00 0.00 0.00 0.00 0.00 0.00 0.00 0.00 0.00 0.00 0.00 0.00 0.00 0.00 0.00 0.00 0.00 0.00 0.00 0.00 0.00 0.00 0.00 0.00 0.00 0.00 0.00 0.00 0.00 0.00 0.00 0.00 0.00
0.00 0.00 0.00 0.00 0.00 0.00 0.00 0.00 0.00 0.00 0.00 0.00 0.00 0.00 0.00 0.00 0.00 0.00 0.00 0.00 0.00 0.00 0.00 0.00 0.00 0.00 0.00 0.00 0.00 0.00 0.00 0.00 0.00 0.00 0.00 0.00 0.00 0.00 0.00 0.00 0.00 0.00 0.00 0.00
0.00 0.00 0.00 0.00 0.00 0.00 0.00 0.00 0.00 0.00 0.00 0.00 0.00 0.00 0.00 0.00 0.00 0.00 0.00 0.00 0.00 0.00 0.00 0.00 0.00 0.00 0.00 0.00 0.00 0.00 0.00 0.00 0.00 0.00 0.00 0.00 0.00 0.00 0.00 0.00 0.00 0.00 0.00 0.00
0.00 0.00 0.00 0.00 0.00 0.00 0.00 0.00 0.00 0.00 0.00 0.00 0.00 0.00 0.00 0.00 0.00 0.00 0.00 0.00 0.00 0.00 0.00 0.00 0.00 0.00 0.00 0.00 0.00 0.00 0.00 0.00 0.00 0.00 0.00 0.00 0.00 0.00 0.00 0.00 0.00 0.00 0.00 0.00
0.00 0.00 0.00 0.00 0.00 0.00 0.00 0.00 0.00 0.00 0.00 0.00 0.00 0.00 0.00 0.00 0.00 0.00 0.00 0.00 0.00 0.00 0.00 0.00 0.00 0.00 0.00 0.00 0.00 0.00 0.00 0.00 0.00 0.00 0.00 0.00 0.00 0.00 0.00 0.00 0.00 0.00 0.00 0.00
0.00 0.00 0.00 0.00 0.00 0.00 0.00 0.00 0.00 0.00 0.00 0.00 0.00 0.00 0.00 0.00 0.00 0.00 0.00 0.00 0.00 0.00 0.00 0.00 0.00 0.00 0.00 0.00 0.00 0.00 0.00 0.00 0.00 0.00 0.00 0.00 0.00 0.00 0.00 0.00 0.00 0.00 0.00 0.00
0.00 0.00 0.00 0.00 0.00 0.00 0.00 0.00 0.00 0.00 0.00 0.00 0.00 0.00 0.00 0.00 0.00 0.00 0.00 0.00 0.00 0.00 0.00 0.00 0.00 0.00 0.00 0.00 0.00 0.00 0.00 0.00 0.00 0.00 0.00 0.00 0.00 0.00 0.00 0.00 0.00 0.00 0.00 0.00
0.00 0.00 0.00 0.00 0.00 0.00 0.00 0.00 0.00 0.00 0.00 0.00 0.00 0.00 0.00 0.00 0.00 0.00 0.00 0.00 0.00 0.00 0.00 0.00 0.00 0.00 0.00 0.00 0.00 0.00 0.00 0.00 0.00 0.00 0.00 0.00 0.00 0.00 0.00 0.00 0.00 0.00 0.00 0.00
0.00 0.00 0.00 0.00 0.00 0.00 0.00 0.00 0.00 0.00 0.00 0.00 0.00 0.00 0.00 0.00 0.00 0.00 0.00 0.00 0.00 0.00 0.00 0.00 0.00 0.00 0.00 0.00 0.00 0.00 0.00 0.00 0.00 0.00 0.00 0.00 0.00 0.00 0.00 0.00 0.00 0.00 0.00 0.00
0.00 0.00 0.00 0.00 0.00 0.00 0.00 0.00 0.00 0.00 0.00 0.00 0.00 0.00 0.00 0.00 0.00 0.00 0.00 0.00 0.00 0.00 0.00 0.00 0.00 0.00 0.00 0.00 0.00 0.00 0.00 0.00 0.00 0.00 0.00 0.00 0.00 0.00 0.00 0.00 0.00 0.00 0.00 0.00
0.00 0.00 0.00 0.00 0.00 0.00 0.00 0.00 0.00 0.00 0.00 0.00 0.00 0.00 0.00 0.00 0.00 0.00 0.00 0.00 0.00 0.00 0.00 0.00 0.00 0.00 0.00 0.00 0.00 0.00 0.00 0.00 0.00 0.00 0.00 0.00 0.00 0.00 0.00 0.00 0.00 0.00 0.00 0.00
0.00 0.00 0.00 0.00 0.00 0.00 0.00 0.00 0.00 0.00 0.00 0.00 0.00 0.00 0.00 0.00 0.00 0.00 0.00 0.00 0.00 0.00 0.00 0.00 0.00 0.00 0.00 0.00 0.00 0.00 0.00 0.00 0.00 0.00 0.00 0.00 0.00 0.00 0.00 0.00 0.00 0.00 0.00 0.00
0.00 0.00 0.00 0.00 0.00 0.00 0.00 0.00 0.00 0.00 0.00 0.00 0.00 0.00 0.00 0.00 0.00 0.00 0.00 0.00 0.00 0.00 0.00 0.00 0.00 0.00 0.00 0.00 0.00 0.00 0.00 0.00 0.00 0.00 0.00 0.00 0.00 0.00 0.00 0.00 0.00 0.00 0.00 0.00
0.00 0.00 0.00 0.00 0.00 0.00 0.00 0.00 0.00 0.00 0.00 0.00 0.00 0.00 0.00 0.00 0.00 0.00 0.00 0.00 0.00 0.00 0.00 0.00 0.00 0.00 0.00 0.00 0.00 0.00 0.00 0.00 0.00 0.00 0.00 0.00 0.00 0.00 0.00 0.00 0.00 0.00 0.00 0.00
0.00 0.00 0.00 0.00 0.00 0.00 0.00 0.00 0.00 0.00 0.00 0.00 0.00 0.00 0.00 0.00 0.00 0.00 0.00 0.00 0.00 0.00 0.00 0.00 0.00 0.00 0.00 0.00 0.00 0.00 0.00 0.00 0.00 0.00 0.00 0.00 0.00 0.00 0.00 0.00 0.00 0.00 0.00 0.00
0.00 0.00 0.00 0.00 0.00 0.00 0.00 0.00 0.00 0.00 0.00 0.00 0.00 0.00 0.00 0.00 0.00 0.00 0.00 0.00 0.00 0.00 0.00 0.00 0.00 0.00 0.00 0.00 0.00 0.00 0.00 0.00 0.00 0.00 0.00 0.00 0.00 0.00 0.00 0.00 0.00 0.00 0.00 0.00
MSLP
1024.53 1025.02 1025.50 1025.95 1026.33 1026.63 1026.80 1026.84 1026.72 1026.47 1026.08 1025.60 1025.04 1024.44 1023.84 1023.24 1022.69 1022.17 1021.68 1021.24 1020.82 1020.43 1020.05 1019.68 1019.32 1018.97 1018.63 1018.29 1017.96 1017.63 1017.31 1017.00 1016.72 1016.45 1016.21 1016.00 1015.83 1015.67 1015.52 1015.37 1015.21 1015.03 1014.82 1014.59
1024.75 1025.16 1025.54 1025.85 1026.10 1026.26 1026.32 1026.28 1026.14 1025.90 1025.57 1025.17 1024.72 1024.22 1023.71 1023.19 1022.68 1022.18 1021.71 1021.26 1020.84 1020.47 1020.13 1019.82 1019.56 1019.31 1019.08 1018.85 1018.61 1018.36 1018.09 1017.81 1017.53 1017.25 1016.99 1016.76 1016.56 1016.37 1016.20 1016.03 1015.85 1015.63 1015.39 1015.11
1024.94 1025.23 1025.46 1025.62 1025.72 1025.75 1025.71 1025.61 1025.46 1025.26 1025.01 1024.72 1024.39 1024.01 1023.60 1023.16 1022.69 1022.21 1021.72 1021.26 1020.83 1020.45 1020.12 1019.86 1019.66 1019.51 1019.38 1019.25 1019.12 1018.95 1018.75 1018.51 1018.25 1017.98 1017.71 1017.46 1017.24 1017.04 1016.85 1016.66 1016.45 1016.22 1015.94 1015.63
1025.07 1025.20 1025.27 1025.26 1025.21 1025.11 1024.99 1024.85 1024.71 1024.56 1024.40 1024.23 1024.02 1023.77 1023.47 1023.10 1022.68 1022.21 1021.72 1021.23 1020.77 1020.37 1020.05 1019.82 1019.67 1019.58 1019.54 1019.51 1019.47 1019.39 1019.26 1019.08 1018.86 1018.61 1018.35 1018.10 1017.86 1017.65 1017.45 1017.25 1017.03 1016.78 1016.48 1016.15
1025.07 1025.04 1024.93 1024.76 1024.56 1024.36 1024.16 1024.00 1023.87 1023.78 1023.72 1023.66 1023.58 1023.45 1023.25 1022.96 1022.59 1022.15 1021.66 1021.16 1020.69 1020.27 1019.95 1019.73 1019.61 1019.58 1019.61 1019.66 1019.71 1019.71 1019.66 1019.54 1019.36 1019.15 1018.91 1018.67 1018.44 1018.22 1018.01 1017.80 1017.57 1017.31 1017.00 1016.64
1024.88 1024.68 1024.42 1024.11 1023.80 1023.51 1023.26 1023.08 1022.98 1022.94 1022.96 1023.01 1023.04 1023.02 1022.92 1022.72 1022.42 1022.02 1021.55 1021.06 1020.58 1020.17 1019.85 1019.64 1019.55 1019.56 1019.64 1019.76 1019.88 1019.95 1019.97 1019.92 1019.80 1019.63 1019.42 1019.20 1018.98 1018.76 1018.55 1018.33 1018.09 1017.81 1017.48 1017.10
1024.41 1024.09 1023.71 1023.31 1022.92 1022.58 1022.31 1022.13 1022.06 1022.08 1022.17 1022.30 1022.43 1022.51 1022.51 1022.39 1022.16 1021.82 1021.40 1020.94 1020.49 1020.10 1019.79 1019.60 1019.53 1019.57 1019.69 1019.86 1020.03 1020.16 1020.24 1020.25 1020.19 1020.07 1019.90 1019.71 1019.50 1019.29 1019.08 1018.85 1018.59 1018.29 1017.94 1017.54
1023.66 1023.25 1022.81 1022.36 1021.95 1021.60 1021.35 1021.20 1021.17 1021.24 1021.39 1021.60 1021.80 1021.96 1022.04 1022.01 1021.86 1021.59 1021.24 1020.84 1020.44 1020.08 1019.80 1019.64 1019.59 1019.65 1019.80 1019.99 1020.19 1020.37 1020.50 1020.56 1020.56 1020.48 1020.36 1020.20 1020.02 1019.81 1019.60 1019.35 1019.08 1018.76 1018.40 1017.99
1022.62 1022.19 1021.74 1021.32 1020.94 1020.64 1020.43 1020.34 1020.36 1020.48 1020.69 1020.95 1021.21 1021.43 1021.58 1021.62 1021.55 1021.37 1021.10 1020.77 1020.44 1020.13 1019.90 1019.76 1019.73 1019.80 1019.95 1020.15 1020.37 1020.58 1020.74 1020.85 1020.89 1020.87 1020.79 1020.66 1020.51 1020.32 1020.11 1019.86 1019.58 1019.25 1018.87 1018.45
1021.36 1020.96 1020.57 1020.22 1019.93 1019.72 1019.61 1019.59 1019.68 1019.86 1020.11 1020.41 1020.71 1020.98 1021.17 1021.28 1021.28 1021.18 1021.00 1020.75 1020.49 1020.24 1020.05 1019.94 1019.92 1019.99 1020.13 1020.33 1020.55 1020.76 1020.94 1021.08 1021.16 1021.19 1021.16 1021.08 1020.96 1020.80 1020.60 1020.36 1020.08 1019.75 1019.37 1018.96
1019.99 1019.66 1019.38 1019.15 1018.99 1018.91 1018.90 1018.99 1019.16 1019.40 1019.69 1020.01 1020.34 1020.63 1020.86 1021.02 1021.08 1021.05 1020.94 1020.77 1020.58 1020.39 1020.24 1020.14 1020.12 1020.17 1020.30 1020.47 1020.67 1020.87 1021.06 1021.22 1021.34 1021.41 1021.43 1021.40 1021.33 1021.21 1021.04 1020.83 1020.57 1020.26 1019.90 1019.52
1018.60 1018.38 1018.22 1018.14 1018.13 1018.20 1018.33 1018.53 1018.78 1019.08 1019.41 1019.75 1020.09 1020.39 1020.64 1020.82 1020.93 1020.95 1020.91 1020.80 1020.67 1020.53 1020.40 1020.32 1020.28 1020.31 1020.39 1020.52 1020.69 1020.87 1021.06 1021.23 1021.37 1021.48 1021.56 1021.59 1021.57 1021.51 1021.40 1021.24 1021.02 1020.75 1020.44 1020.11
1017.29 1017.17 1017.15 1017.22 1017.38 1017.60 1017.87 1018.17 1018.51 1018.86 1019.22 1019.58 1019.91 1020.22 1020.47 1020.67 1020.80 1020.87 1020.87 1020.81 1020.72 1020.61 1020.51 1020.42 1020.36 1020.36 1020.39 1020.48 1020.60 1020.75 1020.92 1021.09 1021.25 1021.41 1021.53 1021.63 1021.68 1021.69 1021.65 1021.55 1021.40 1021.20 1020.95 1020.68
1016.10 1016.08 1016.18 1016.40 1016.70 1017.06 1017.45 1017.86 1018.28 1018.68 1019.06 1019.43 1019.76 1020.05 1020.30 1020.51 1020.65 1020.75 1020.78 1020.76 1020.71 1020.62 1020.52 1020.43 1020.35 1020.30 1020.29 1020.32 1020.40 1020.51 1020.66 1020.82 1021.00 1021.19 1021.36 1021.52 1021.64 1021.72 1021.75 1021.74 1021.67 1021.55 1021.39 1021.20
1015.02 1015.09 1015.31 1015.64 1016.06 1016.54 1017.04 1017.53 1018.01 1018.45 1018.86 1019.22 1019.55 1019.84 1020.08 1020.29 1020.45 1020.56 1020.62 1020.63 1020.60 1020.54 1020.45 1020.35 1020.25 1020.17 1020.12 1020.11 1020.13 1020.21 1020.33 1020.48 1020.67 1020.87 1021.08 1021.28 1021.46 1021.61 1021.72 1021.78 1021.80 1021.77 1021.70 1021.60
1014.06 1014.20 1014.49 1014.92 1015.43 1015.99 1016.56 1017.12 1017.65 1018.12 1018.55 1018.92 1019.24 1019.53 1019.77 1019.98 1020.15 1020.28 1020.37 1020.41 1020.41 1020.37 1020.30 1020.20 1020.10 1020.00 1019.92 1019.87 1019.86 1019.90 1019.99 1020.12 1020.30 1020.51 1020.73 1020.96 1021.19 1021.39 1021.56 1021.69 1021.78 1021.84 1021.85 1021.85
1013.19 1013.37 1013.72 1014.20 1014.77 1015.39 1016.01 1016.61 1017.17 1017.67 1018.10 1018.48 1018.81 1019.10 1019.35 1019.56 1019.75 1019.91 1020.03 1020.11 1020.14 1020.14 1020.09 1020.02 1019.92 1019.82 1019.73 1019.66 1019.63 1019.64 1019.70 1019.81 1019.97 1020.16 1020.38 1020.62 1020.85 1021.08 1021.29 1021.47 1021.62 1021.74 1021.84 1021.91
1012.42 1012.63 1013.01 1013.52 1014.11 1014.75 1015.39 1016.00 1016.57 1017.08 1017.53 1017.91 1018.25 1018.55 1018.81 1019.05 1019.26 1019.45 1019.61 1019.73 1019.81 1019.85 1019.85 1019.82 1019.75 1019.67 1019.59 1019.52 1019.48 1019.47 1019.50 1019.58 1019.71 1019.87 1020.06 1020.27 1020.50 1020.72 1020.94 1021.14 1021.32 1021.49 1021.64 1021.78
1011.79 1012.01 1012.39 1012.89 1013.47 1014.10 1014.73 1015.34 1015.90 1016.41 1016.85 1017.25 1017.59 1017.90 1018.18 1018.44 1018.69 1018.92 1019.12 1019.29 1019.43 1019.53 1019.58 1019.60 1019.58 1019.54 1019.49 1019.44 1019.40 1019.38 1019.39 1019.44 1019.52 1019.64 1019.78 1019.95 1020.14 1020.33 1020.53 1020.72 1020.92 1021.10 1021.29 1021.47
1011.37 1011.57 1011.92 1012.39 1012.93 1013.52 1014.11 1014.68 1015.22 1015.71 1016.14 1016.53 1016.88 1017.20 1017.50 1017.78 1018.06 1018.32 1018.57 1018.79 1018.99 1019.15 1019.26 1019.34 1019.39 1019.40 1019.39 1019.37 1019.34 1019.33 1019.33 1019.34 1019.39 1019.45 1019.54 1019.65 1019.77 1019.92 1020.07 1020.24 1020.41 1020.60 1020.80 1021.01
1011.23 1011.39 1011.68 1012.08 1012.55 1013.07 1013.60 1014.11 1014.60 1015.05 1015.46 1015.83 1016.17 1016.49 1016.80 1017.10 1017.39 1017.68 1017.97 1018.23 1018.48 1018.69 1018.87 1019.01 1019.12 1019.19 1019.23 1019.25 1019.25 1019.25 1019.24 1019.24 1019.24 1019.26 1019.29 1019.33 1019.39 1019.47 1019.57 1019.69 1019.84 1020.01 1020.21 1020.42
1011.40 1011.50 1011.71 1012.01 1012.39 1012.81 1013.25 1013.69 1014.11 1014.50 1014.86 1015.20 1015.52 1015.82 1016.12 1016.42 1016.72 1017.02 1017.32 1017.62 1017.90 1018.16 1018.39 1018.58 1018.74 1018.87 1018.96 1019.02 1019.05 1019.07 1019.06 1019.05 1019.02 1019.00 1018.98 1018.97 1018.97 1018.99 1019.03 1019.10 1019.21 1019.36 1019.54 1019.75
1011.88 1011.90 1012.01 1012.21 1012.48 1012.79 1013.12 1013.46 1013.79 1014.10 1014.40 1014.69 1014.96 1015.23 1015.50 1015.78 1016.06 1016.36 1016.66 1016.96 1017.25 1017.53 1017.79 1018.03 1018.23 1018.40 1018.54 1018.64 1018.71 1018.74 1018.75 1018.73 1018.70 1018.65 1018.59 1018.53 1018.48 1018.45 1018.44 1018.47 1018.54 1018.65 1018.81 1019.01
1012.61 1012.54 1012.55 1012.64 1012.79 1012.98 1013.20 1013.43 1013.66 1013.88 1014.11 1014.32 1014.53 1014.75 1014.98 1015.21 1015.46 1015.73 1016.00 1016.29 1016.57 1016.85 1017.12 1017.37 1017.60 1017.80 1017.97 1018.10 1018.20 1018.26 1018.28 1018.28 1018.24 1018.18 1018.10 1018.02 1017.94 1017.87 1017.82 1017.81 1017.84 1017.92 1018.04 1018.22
1013.45 1013.31 1013.23 1013.22 1013.26 1013.34 1013.44 1013.57 1013.70 1013.84 1013.98 1014.12 1014.26 1014.41 1014.57 1014.75 1014.95 1015.16 1015.40 1015.64 1015.90 1016.16 1016.41 1016.66 1016.89 1017.10 1017.28 1017.44 1017.56 1017.64 1017.69 1017.70 1017.67 1017.62 1017.54 1017.44 1017.34 1017.25 1017.17 1017.13 1017.13 1017.17 1017.27 1017.42
1014.26 1014.07 1013.93 1013.84 1013.79 1013.79 1013.80 1013.84 1013.88 1013.94 1014.00 1014.06 1014.13 1014.21 1014.31 1014.42 1014.56 1014.71 1014.88 1015.08 1015.28 1015.50 1015.72 1015.95 1016.16 1016.37 1016.56 1016.72 1016.85 1016.95 1017.01 1017.04 1017.03 1016.98 1016.91 1016.82 1016.72 1016.61 1016.52 1016.45 1016.42 1016.43 1016.49 1016.61
1014.89 1014.68 1014.51 1014.38 1014.29 1014.22 1014.18 1014.15 1014.13 1014.12 1014.12 1014.12 1014.12 1014.14 1014.17 1014.22 1014.29 1014.38 1014.49 1014.62 1014.77 1014.94 1015.12 1015.30 1015.49 1015.67 1015.84 1016.00 1016.13 1016.23 1016.31 1016.35 1016.35 1016.32 1016.27 1016.18 1016.08 1015.98 1015.88 1015.79 1015.74 1015.72 1015.74 1015.82
Thickness
5657 5657 5651 5644 5638 5631 5623 5614 5606 5610 5609 5612 5614 5613 5613 5614 5615 5617 5618 5619 5620 5620 5621 5622 5622 5623 5624 5625 5627 5629 5630 5631 5633 5635 5636 5638 5638 5639 5639 5640 5640 5640 5641 5641
5658 5658 5654 5646 5642 5636 5630 5623 5619 5617 5616 5623 5623 5621 5620 5620 5621 5621 5623 5624 5625 5626 5626 5626 5626 5626 5626 5626 5627 5628 5628 5628 5629 5631 5631 5632 5632 5632 5632 5632 5632 5632 5632 5632
5650 5656 5651 5643 5647 5642 5638 5634 5629 5622 5625 5631 5629 5629 5628 5628 5627 5627 5628 5630 5630 5631 5630 5630 5630 5629 5628 5628 5628 5628 5627 5627 5627 5627 5627 5627 5627 5627 5626 5624 5624 5623 5623 5624
5648 5652 5645 5656 5663 5656 5648 5646 5640 5638 5637 5637 5636 5636 5637 5636 5635 5634 5636 5636 5637 5637 5636 5636 5636 5634 5633 5631 5630 5628 5627 5626 5626 5625 5624 5623 5623 5621 5620 5619 5618 5617 5616 5616
5647 5647 5651 5664 5667 5661 5653 5650 5653 5647 5647 5646 5645 5642 5641 5646 5645 5643 5643 5643 5643 5643 5643 5642 5640 5639 5637 5634 5632 5630 5627 5626 5624 5623 5622 5621 5619 5617 5615 5614 5612 5610 5609 5609
5652 5658 5658 5674 5679 5675 5664 5654 5665 5659 5654 5651 5647 5634 5638 5650 5651 5651 5651 5650 5650 5649 5648 5647 5645 5643 5640 5637 5634 5631 5628 5626 5624 5622 5620 5618 5616 5614 5611 5609 5607 5605 5603 5602
5658 5659 5667 5686 5684 5678 5654 5662 5676 5670 5664 5657 5650 5647 5652 5655 5656 5656 5656 5655 5655 5653 5651 5650 5649 5646 5643 5640 5636 5634 5631 5629 5626 5623 5620 5617 5614 5611 5608 5605 5603 5600 5598 5596
5659 5661 5672 5693 5686 5678 5680 5687 5683 5677 5672 5666 5663 5662 5662 5662 5661 5660 5659 5659 5658 5656 5655 5654 5652 5650 5646 5643 5640 5637 5634 5630 5626 5623 5621 5617 5613 5610 5606 5603 5600 5597 5594 5593
5683 5692 5704 5702 5703 5704 5699 5692 5688 5683 5679 5675 5670 5668 5669 5667 5665 5664 5663 5661 5660 5658 5657 5656 5655 5653 5649 5647 5644 5640 5635 5631 5627 5623 5619 5616 5612 5609 5605 5602 5598 5594 5592 5589
5693 5703 5708 5708 5708 5708 5704 5700 5696 5691 5686 5681 5677 5675 5673 5669 5667 5666 5665 5663 5662 5661 5659 5658 5657 5656 5653 5651 5647 5642 5637 5632 5628 5624 5619 5616 5612 5608 5605 5601 5597 5594 5591 5588
5702 5711 5714 5715 5713 5712 5708 5705 5700 5695 5691 5687 5682 5679 5676 5672 5670 5668 5667 5665 5664 5662 5661 5660 5660 5659 5657 5654 5650 5644 5639 5635 5630 5625 5620 5616 5613 5609 5605 5601 5598 5594 5592 5589
5714 5724 5720 5723 5724 5719 5712 5707 5704 5699 5693 5690 5687 5683 5680 5675 5673 5671 5669 5668 5666 5665 5664 5663 5662 5660 5659 5657 5653 5648 5642 5637 5632 5627 5623 5619 5615 5611 5608 5605 5602 5599 5597 5595
5737 5737 5730 5732 5728 5724 5719 5714 5709 5704 5699 5693 5690 5687 5683 5679 5676 5674 5672 5670 5669 5667 5666 5665 5663 5662 5661 5659 5655 5651 5646 5641 5636 5632 5627 5622 5618 5614 5611 5609 5606 5603 5601 5599
5736 5733 5730 5730 5727 5725 5722 5718 5712 5707 5702 5698 5693 5689 5685 5681 5678 5676 5674 5673 5671 5670 5668 5667 5665 5664 5663 5661 5658 5654 5650 5646 5641 5636 5632 5627 5623 5618 5614 5611 5608 5605 5603 5602
5734 5735 5735 5734 5729 5724 5721 5716 5709 5704 5701 5697 5694 5690 5686 5682 5679 5678 5677 5675 5673 5671 5670 5668 5667 5665 5665 5663 5660 5657 5653 5649 5645 5641 5636 5632 5628 5623 5619 5616 5612 5608 5606 5605
5734 5732 5731 5729 5726 5722 5718 5714 5710 5705 5702 5698 5694 5692 5689 5686 5682 5680 5678 5676 5673 5672 5671 5669 5668 5667 5666 5664 5662 5659 5656 5653 5649 5645 5641 5637 5632 5628 5624 5620 5616 5613 5610 5608
5728 5726 5725 5724 5723 5721 5720 5719 5715 5710 5704 5700 5697 5694 5690 5685 5682 5680 5679 5677 5675 5673 5672 5670 5669 5668 5667 5666 5663 5660 5658 5655 5654 5649 5645 5641 5637 5633 5629 5625 5622 5618 5615 5613
5739 5740 5735 5732 5728 5723 5720 5718 5715 5711 5706 5704 5700 5694 5689 5685 5682 5681 5680 5677 5675 5674 5673 5672 5670 5669 5668 5666 5664 5661 5659 5657 5654 5652 5649 5646 5642 5639 5635 5631 5628 5624 5621 5619
5734 5734 5732 5730 5728 5725 5721 5717 5714 5711 5708 5704 5698 5694 5691 5688 5685 5683 5679 5676 5674 5673 5674 5674 5672 5670 5667 5666 5665 5662 5660 5658 5656 5654 5652 5650 5647 5644 5640 5637 5634 5630 5627 5624
5729 5729 5727 5725 5723 5721 5718 5716 5712 5708 5705 5702 5697 5693 5689 5687 5685 5682 5678 5675 5675 5676 5676 5674 5672 5670 5668 5666 5665 5662 5660 5659 5657 5656 5654 5652 5650 5648 5645 5642 5639 5636 5633 5630
5721 5721 5719 5718 5716 5715 5714 5712 5708 5705 5702 5699 5695 5692 5689 5687 5684 5680 5676 5674 5678 5677 5675 5674 5671 5669 5668 5666 5665 5662 5660 5659 5658 5657 5656 5654 5653 5651 5649 5647 5644 5642 5639 5637
5708 5709 5710 5709 5708 5707 5706 5704 5703 5701 5698 5694 5692 5690 5687 5684 5680 5677 5677 5677 5680 5678 5674 5672 5671 5670 5668 5666 5663 5661 5660 5659 5658 5657 5657 5656 5655 5654 5652 5651 5649 5647 5645 5643
5690 5693 5695 5696 5697 5696 5696 5695 5694 5693 5692 5690 5688 5686 5684 5683 5680 5675 5674 5678 5677 5675 5673 5671 5671 5670 5668 5665 5662 5660 5659 5658 5658 5658 5657 5657 5657 5656 5655 5654 5653 5651 5649 5647
5671 5674 5677 5679 5681 5681 5681 5682 5682 5683 5684 5684 5684 5683 5681 5678 5674 5675 5677 5678 5676 5674 5671 5670 5669 5668 5667 5663 5660 5659 5658 5658 5658 5658 5658 5658 5657 5657 5656 5656 5655 5654 5652 5650
5649 5652 5656 5659 5661 5662 5664 5667 5669 5670 5671 5672 5673 5674 5674 5674 5673 5674 5672 5670 5670 5669 5667 5667 5667 5666 5663 5660 5658 5657 5657 5657 5657 5656 5657 5657 5657 5657 5657 5656 5655 5655 5653 5652
5626 5629 5632 5634 5637 5641 5645 5649 5651 5653 5655 5657 5659 5661 5662 5663 5663 5663 5663 5663 5663 5663 5661 5660 5660 5660 5658 5656 5655 5654 5654 5654 5654 5654 5655 5655 5656 5656 5656 5656 5655 5654 5654 5653
5602 5607 5611 5615 5618 5621 5625 5629 5632 5635 5638 5641 5644 5647 5648 5650 5651 5651 5652 5652 5652 5653 5653 5653 5653 5652 5651 5651 5650 5650 5650 5650 5650 5651 5651 5652 5652 5653 5653 5654 5654 5653 5653 5652